This is the latest recevied weather packets stored in our database for station/object DO7ZT-13. If no packets are shown the sender has not sent any weather packets the latest 10 day(s).
| Time | Temp. | Humidity | Pressure | Rain* | Wind** | Luminosity | Snow |
|---|---|---|---|---|---|---|---|
| 1777514114 | -1.11° C | 68% | 1031.2 hPa | 0 mm | 0.45 m/s, 132° | - | - |
| 1777513827 | -1.11° C | 71% | 1031.2 hPa | 0 mm | 0.89 m/s, 138° | - | - |
| 1777513514 | -1.11° C | 73% | 1031.1 hPa | 0 mm | 0.45 m/s, 138° | - | - |
| 1777513227 | -1.11° C | 75% | 1031.1 hPa | 0 mm | 0.45 m/s, 138° | - | - |
| 1777512914 | -1.11° C | 74% | 1031.1 hPa | 0 mm | 0.45 m/s, 138° | - | - |
| 1777512627 | -1.11° C | 71% | 1030.9 hPa | 0 mm | 0.45 m/s, 138° | - | - |
| 1777512314 | 0° C | 69% | 1030.9 hPa | 0 mm | 0.45 m/s, 138° | - | - |
| 1777512027 | 0° C | 69% | 1030.9 hPa | 0 mm | 0.45 m/s, 138° | - | - |
| 1777511714 | -1.11° C | 69% | 1030.9 hPa | 0 mm | 0.45 m/s, 138° | - | - |
| 1777511427 | -1.11° C | 70% | 1030.9 hPa | 0 mm | 0.45 m/s, 138° | - | - |
| 1777511114 | -1.11° C | 74% | 1030.9 hPa | 0 mm | 0.45 m/s, 138° | - | - |
| 1777510827 | -1.11° C | 74% | 1030.8 hPa | 0 mm | 0.45 m/s, 144° | - | - |
| 1777510514 | -1.11° C | 71% | 1030.8 hPa | 0 mm | 0.45 m/s, 162° | - | - |
| 1777510227 | -1.11° C | 74% | 1030.8 hPa | 0 mm | 0.45 m/s, 168° | - | - |
| 1777509915 | -1.11° C | 74% | 1030.8 hPa | 0 mm | 0.45 m/s, 132° | - | - |
| 1777509627 | -1.11° C | 74% | 1030.8 hPa | 0 mm | 0.89 m/s, 144° | - | - |
| 1777509314 | -1.11° C | 74% | 1030.8 hPa | 0 mm | 0.89 m/s, 138° | - | - |
| 1777509027 | -1.11° C | 72% | 1030.7 hPa | 0 mm | 0.45 m/s, 138° | - | - |
| 1777508714 | -1.11° C | 75% | 1030.7 hPa | 0 mm | 0.45 m/s, 138° | - | - |
| 1777508427 | -1.11° C | 74% | 1030.7 hPa | 0 mm | 0.45 m/s, 138° | - | - |
| 1777508114 | -1.11° C | 75% | 1030.7 hPa | 0 mm | 0.89 m/s, 138° | - | - |
| 1777507839 | -1.11° C | 74% | 1030.7 hPa | 0 mm | 0.45 m/s, 138° | - | - |
| 1777507527 | -1.11° C | 74% | 1030.7 hPa | 0 mm | 0.45 m/s, 138° | - | - |
| 1777506927 | -1.11° C | 75% | 1030.8 hPa | 0 mm | 0.45 m/s, 144° | - | - |
| 1777506614 | -1.11° C | 75% | 1030.8 hPa | 0 mm | 0.45 m/s, 144° | - | - |
* Rain latest hour (hover to see other rain measurements)
** Current wind speed in m/s (hover to see current wind gust speed)